This demonstration page uses our WeatherBlox Daily Observations layout. Learn more.

Left ArrowRight Arrow

53.62937, 11.41316

Hourly Observations for April 11, 2015

Temp ( °F °C ) Dew Point ( °F °C ) Humidity (%) Winds ( mph kmh ) Pressure ( in mb ) Visibility ( mi km ) Precip ( " mm )
6:20 am 06:20 Mostly Clear 54 12 43 6 67 67 E 8 13 29.97 1015 7 11 N/A
6:50 am 06:50 Mostly Sunny 54 12 43 6 67 67 SSE 12 19 29.97 1015 7 11 N/A
7:20 am 07:20 Mostly Sunny 54 12 43 6 67 67 SSE 9 15 29.97 1015 7 11 N/A
7:50 am 07:50 Mostly Sunny 54 12 43 6 67 67 SE 5 7 29.97 1015 7 11 N/A
8:20 am 08:20 Mostly Sunny 54 12 43 6 67 67 SE 3 6 29.97 1015 7 11 N/A
8:50 am 08:50 Mostly Sunny 55 13 43 6 63 63 E 3 6 29.94 1014 7 11 N/A
9:20 am 09:20 Mostly Sunny 57 14 43 6 59 59 S 8 13 29.97 1015 7 11 N/A
9:50 am 09:50 Mostly Sunny 59 15 45 7 59 59 SSW 10 17 29.94 1014 7 11 N/A
10:20 am 10:20 Mostly Sunny 59 15 41 5 51 51 SW 7 11 29.94 1014 7 11 N/A
10:50 am 10:50 Mostly Sunny 61 16 43 6 52 52 SW 10 17 29.94 1014 7 11 N/A
11:20 am 11:20 Mostly Sunny 63 17 43 6 49 49 SSW 12 19 29.94 1014 7 11 N/A
11:50 am 11:50 Mostly Sunny 63 17 43 6 49 49 SSW 12 19 29.94 1014 7 11 N/A
12:20 pm 12:20 Mostly Sunny 64 18 43 6 46 46 SSW 9 15 29.94 1014 7 11 N/A
12:50 pm 12:50 Mostly Sunny 68 20 43 6 40 40 SSW 12 19 29.94 1014 7 11 N/A
1:20 pm 13:20 Mostly Sunny 68 20 45 7 43 43 SSW 14 22 29.94 1014 7 11 N/A
1:50 pm 13:50 Mostly Sunny 68 20 43 6 40 40 SSW 17 28 29.94 1014 7 11 N/A
2:20 pm 14:20 Mostly Sunny 68 20 43 6 40 40 SW 16 26 29.94 1014 7 11 N/A
2:50 pm 14:50 Mostly Sunny 70 21 43 6 38 38 SW 23 37 29.94 1014 7 11 N/A
3:20 pm 15:20 Mostly Sunny 70 21 45 7 40 40 WSW 21 33 29.94 1014 7 11 N/A
3:40 pm 15:40 Mostly Sunny 68 20 43 6 40 40 SSW 20 31 29.94 1014 7 11 N/A
3:50 pm 15:50 Mostly Sunny 68 20 43 6 40 40 SW 23 37 29.94 1014 7 11 N/A
4:20 pm 16:20 Mostly Sunny 70 21 45 7 40 40 SW 20 31 29.94 1014 7 11 N/A
4:21 pm 16:21 Mostly Sunny 68 20 43 6 40 40 SW 22 35 29.94 1014 7 11 N/A
4:50 pm 16:50 Mostly Sunny 66 19 45 7 46 46 WSW 18 30 29.94 1014 7 11 N/A
5:20 pm 17:20 Partly Cloudy with Showers Nearby 57 14 48 9 72 72 SW 28 44 29.94 1014 4 7 N/A
5:50 pm 17:50 Partly Cloudy 61 16 52 11 72 72 SSW 15 24 29.94 1014 30 48 N/A
6:20 pm 18:20 Partly Cloudy 63 17 48 9 59 59 SSW 14 22 29.94 1014 30 48 N/A
6:50 pm 18:50 Partly Cloudy 61 16 46 8 59 59 SW 20 31 29.94 1014 30 48 N/A

Powered by AerisWeather